TimeAST,TemperatureF,Dew PointF,Humidity,Sea Level PressureIn,VisibilityMPH,Wind Direction,Wind SpeedMPH,Gust SpeedMPH,PrecipitationIn,Events,Conditions,WindDirDegrees,DateUTC
12:56 AM,81.0,75.0,82,29.92,10.0,Calm,Calm,-,N/A,,Scattered Clouds,0,2012-11-14 04:56:00
1:56 AM,79.0,73.9,84,29.90,10.0,Calm,Calm,-,N/A,,Partly Cloudy,0,2012-11-14 05:56:00
2:56 AM,79.0,73.9,84,29.89,10.0,Calm,Calm,-,N/A,,Scattered Clouds,0,2012-11-14 06:56:00
3:56 AM,79.0,73.9,84,29.88,10.0,Calm,Calm,-,N/A,,Scattered Clouds,0,2012-11-14 07:56:00
4:56 AM,79.0,73.9,84,29.88,10.0,Calm,Calm,-,N/A,,Scattered Clouds,0,2012-11-14 08:56:00
5:56 AM,78.1,73.9,87,29.89,10.0,Calm,Calm,-,0.00,,Scattered Clouds,0,2012-11-14 09:56:00
6:56 AM,78.1,73.9,87,29.93,10.0,Calm,Calm,-,N/A,,Mostly Cloudy,0,2012-11-14 10:56:00
7:56 AM,79.0,75.0,88,29.96,10.0,Calm,Calm,-,N/A,,Mostly Cloudy,0,2012-11-14 11:56:00
8:56 AM,82.0,75.0,79,29.96,10.0,Calm,Calm,-,N/A,,Mostly Cloudy,0,2012-11-14 12:56:00
9:56 AM,82.0,75.0,79,29.98,10.0,NE,3.5,-,N/A,,Mostly Cloudy,40,2012-11-14 13:56:00
10:56 AM,82.0,75.9,82,29.97,10.0,East,6.9,-,0.02,Rain,Light Rain,90,2012-11-14 14:56:00
11:56 AM,84.9,77.0,77,29.95,10.0,ENE,8.1,-,0.02,,Mostly Cloudy,60,2012-11-14 15:56:00
12:56 PM,84.0,73.9,72,29.92,10.0,East,11.5,-,N/A,,Mostly Cloudy,90,2012-11-14 16:56:00
1:56 PM,86.0,73.9,67,29.88,10.0,East,11.5,-,N/A,,Mostly Cloudy,80,2012-11-14 17:56:00
2:56 PM,84.9,73.9,69,29.88,10.0,East,10.4,-,N/A,,Mostly Cloudy,100,2012-11-14 18:56:00
3:56 PM,84.0,75.0,74,29.88,10.0,East,9.2,-,N/A,,Mostly Cloudy,80,2012-11-14 19:56:00
4:56 PM,82.9,73.9,74,29.88,10.0,ENE,8.1,-,N/A,,Scattered Clouds,70,2012-11-14 20:56:00
5:56 PM,82.0,73.9,76,29.89,10.0,ENE,9.2,-,N/A,,Mostly Cloudy,60,2012-11-14 21:56:00
6:56 PM,80.1,75.9,87,29.91,5.0,East,8.1,-,0.00,Rain,Light Rain,100,2012-11-14 22:56:00
7:56 PM,78.1,75.0,90,29.92,10.0,East,4.6,-,0.11,,Mostly Cloudy,100,2012-11-14 23:56:00
8:56 PM,79.0,75.9,90,29.93,10.0,Calm,Calm,-,0.00,,Scattered Clouds,0,2012-11-15 00:56:00
9:56 PM,79.0,75.0,88,29.94,10.0,ESE,3.5,-,0.00,,Scattered Clouds,120,2012-11-15 01:56:00
10:56 PM,79.0,75.9,90,29.94,10.0,Calm,Calm,-,N/A,,Partly Cloudy,0,2012-11-15 02:56:00
11:56 PM,79.0,75.0,88,29.93,10.0,Calm,Calm,-,N/A,,Partly Cloudy,0,2012-11-15 03:56:00